Concordia, KS

8:34 PM CST on December 08, 2019 (GMT -0600)
Blosser Municipal

Weather History for KCNK - October, 2019

Change the Weather History Date:

Thursday, October 17, 2019

  Actual Average Record
Temperature  
Mean Temperature 59 °F 55 °F  
Max Temperature 79 °F 67 °F 90 °F (1991)
Min Temperature 39 °F 44 °F 24 °F (1976)
Degree Days  
Heating Degree Days 6 10  
Month to date heating degree days 148 136  
Since 1 July heating degree days 151 209  
Cooling Degree Days 0 0  
Month to date cooling degree days 6 20  
Year to date cooling degree days 1654 1346  
Growing Degree Days 9 (Base 50)    
Moisture  
Dew Point 39 °F    
Average Humidity 55    
Maximum Humidity 85    
Minimum Humidity 25    
Precipitation  
Precipitation 0.00 in 0.06 in 2.38 in (1897)
Month to date precipitation 1.05 1.14  
Year to date precipitation 32.07 25.15  
Snow  
Snow 0.00 in 0.00 in 0.00 in ()
Month to date snowfall 0.0 0.0  
Year to date snowfall 32.3 13.7  
Since 1 July snowfall 0.0 0.0  
Snow Depth 0.00 in    
Sea Level Pressure  
Sea Level Pressure 29.85 in    
Wind  
Wind Speed 11 mph (SSE)    
Max Wind Speed 23 mph    
Max Gust Speed 29 mph    
Visibility 10 miles    
Events      
T = Trace of Precipitation, MM = Missing Value Source: NWS Daily Summary

Daily Weather History Graph

Daily Weather History Graph

Search for Another Location

Airport or City:

Astronomy

Oct. 17, 2019 Rise Set
Actual Time 7:42 AM CDT 6:48 PM CDT
Civil Twilight 7:15 AM CDT 7:15 PM CDT
Nautical Twilight 6:44 AM CDT 7:47 PM CDT
Astronomical Twilight 6:12 AM CDT 8:18 PM CDT
Moon 9:22 PM CDT (10/17) 11:14 AM CDT (10/17)
Length of Visible Light 12h 00m
Length of Day
11h 06m
Waning Gibbous, 86% of the Moon is Illuminated
Oct 17
Waning Gibbous
Oct 21
Last Quarter
Oct 27
New
Nov 4
First Quarter
Nov 12
Full

Hourly Weather History & Observations

Time (CDT) Temp. Windchill Dew Point Humidity Pressure Visibility Wind Dir Wind Speed Gust Speed Precip Events Conditions
12:55 AM 45.0 °F 41.2 °F 36.0 °F 71% 30.00 in 10.0 mi SSE 6.9 mph - N/A   Clear
1:55 AM 44.1 °F 41.5 °F 36.0 °F 73% 29.98 in 10.0 mi East 4.6 mph - N/A   Clear
2:55 AM 42.1 °F 40.2 °F 36.0 °F 79% 29.96 in 10.0 mi East 3.5 mph - N/A   Clear
3:55 AM 39.9 °F 37.8 °F 35.1 °F 83% 29.94 in 10.0 mi ENE 3.5 mph - N/A   Clear
4:55 AM 39.0 °F 35.7 °F 35.1 °F 86% 29.94 in 10.0 mi ESE 4.6 mph - N/A   Clear
5:55 AM 43.0 °F 37.7 °F 36.0 °F 76% 29.92 in 10.0 mi SSE 9.2 mph - N/A   Clear
6:55 AM 46.0 °F 43.9 °F 37.0 °F 71% 29.93 in 10.0 mi SE 4.6 mph - N/A   Clear
7:55 AM 44.1 °F 42.5 °F 36.0 °F 73% 29.94 in 10.0 mi East 3.5 mph - N/A   Clear
8:55 AM 50.0 °F - 39.0 °F 66% 29.93 in 10.0 mi South 9.2 mph - N/A   Clear
9:55 AM 55.0 °F - 39.0 °F 55% 29.91 in 10.0 mi SSW 13.8 mph - N/A   Clear
10:55 AM 60.1 °F - 39.0 °F 46% 29.90 in 10.0 mi SSW 11.5 mph - N/A   Clear
11:55 AM 64.0 °F - 39.9 °F 41% 29.87 in 10.0 mi South 9.2 mph - N/A   Clear
12:55 PM 69.1 °F - 39.9 °F 35% 29.84 in 10.0 mi South 11.5 mph 19.6 mph N/A   Clear
1:55 PM 73.9 °F - 41.0 °F 30% 29.81 in 10.0 mi SSE 13.8 mph - N/A   Clear
2:55 PM 77.0 °F - 39.9 °F 26% 29.77 in 10.0 mi SSE 13.8 mph - N/A   Clear
3:55 PM 79.0 °F - 39.9 °F 25% 29.75 in 10.0 mi SSE 16.1 mph 24.2 mph N/A   Clear
4:55 PM 77.0 °F - 39.0 °F 25% 29.75 in 10.0 mi SSE 19.6 mph - N/A   Clear
5:55 PM 73.9 °F - 39.0 °F 28% 29.74 in 10.0 mi South 16.1 mph 25.3 mph N/A   Clear
6:55 PM 66.0 °F - 41.0 °F 40% 29.74 in 10.0 mi SSE 9.2 mph - N/A   Clear
7:55 PM 61.0 °F - 42.1 °F 50% 29.74 in 9.0 mi SE 10.4 mph - N/A   Clear
8:55 PM 64.9 °F - 41.0 °F 42% 29.73 in 10.0 mi SSE 17.3 mph - N/A   Clear
9:55 PM 63.0 °F - 42.1 °F 46% 29.72 in 10.0 mi SSE 18.4 mph 26.5 mph N/A   Clear
10:55 PM 62.1 °F - 42.1 °F 48% 29.71 in 10.0 mi SSE 18.4 mph - N/A   Clear
11:55 PM 61.0 °F - 42.1 °F 50% 29.69 in 10.0 mi SSE 17.3 mph - N/A   Clear